Tracking 29932 objects as of 4-Dec-2024
HD Live streaming from Space Station
objects crossing your sky now

STARLINK-31005

Track STARLINK-31005 now!
10-day predictions
STARLINK-31005 is classified as:


NORAD ID: 58486
Int'l Code: 2023-186P
Perigee: 565.1 km
Apogee: 567.4 km
Inclination: 43.0 °
Period: 95.8 minutes
Semi major axis: 6937 km
RCS: Unknown
Launch date: December 3, 2023
Source: United States (US)
Launch site: AIR FORCE EASTERN TEST RANGE (AFETR)
Your satellite tracking list
Your tracking list is empty




NASA's NSSDC Master Catalog

Two Line Element Set (TLE):
1 58486U 23186P   24338.48171695  .00001686  00000-0  13989-3 0  9996
2 58486  43.0039  53.5407 0001620 268.7676  91.2981 15.02531149 56469
Source of the keplerian elements: AFSPC